ACA108 CYVR-CYYZ

Flight info

Callsign ACA108
Flight time 3h 59m
Altitude 33000
Route YVR4/26L ALNOD DCT IKNIX DCT DORSE DCT KU21Q DCT KP09A DCT KP03G DCT KP90K DCT GRB DCT YZEMN NUBER6
Aircraft A321/M-SDE3FGHIRWY/LB1

Departure

Time 2026-05-04 17:36
Airport Vancouver International Airport (CYVR)

Arrival

Time 2026-05-04 21:36
Airport Toronto Pearson International Airport (CYYZ)
Time Latitude Longitude Altitude Speed Heading
2026-05-04 16:14 49.19633 -123.18473 25 ft 0 kts 200°
2026-05-04 17:23 49.19645 -123.18466 25 ft 4 kts 200°
2026-05-04 17:24 49.19668 -123.18454 27 ft 2 kts 200°
2026-05-04 17:24 49.19694 -123.18390 25 ft 0 kts 280°
2026-05-04 17:27 49.19702 -123.18463 27 ft 9 kts 280°
2026-05-04 17:28 49.19715 -123.18625 27 ft 7 kts 249°
2026-05-04 17:29 49.19466 -123.18742 26 ft 17 kts 190°
2026-05-04 17:29 49.19153 -123.18686 25 ft 15 kts 140°
2026-05-04 17:30 49.18944 -123.18371 25 ft 13 kts 98°
2026-05-04 17:31 49.18907 -123.18015 25 ft 24 kts 101°
2026-05-04 17:31 49.18826 -123.17314 25 ft 23 kts 100°
2026-05-04 17:32 49.18766 -123.16814 25 ft 23 kts 100°
2026-05-04 17:33 49.18647 -123.16203 27 ft 17 kts 108°
2026-05-04 17:33 49.18607 -123.16053 26 ft 13 kts 137°
2026-05-04 17:34 49.18481 -123.16139 25 ft 0 kts 281°
2026-05-04 17:35 49.18481 -123.16140 25 ft 1 kts 281°
2026-05-04 17:35 49.18503 -123.16335 25 ft 51 kts 279°
2026-05-04 17:36 49.18602 -123.17214 25 ft 114 kts 280°
2026-05-04 17:36 49.18769 -123.18667 27 ft 161 kts 279°
2026-05-04 17:36 49.18977 -123.20509 271 ft 180 kts 280°
2026-05-04 17:36 49.19198 -123.22382 915 ft 179 kts 281°
2026-05-04 17:37 49.19416 -123.24262 1540 ft 180 kts 280°
2026-05-04 17:37 49.19639 -123.26204 1854 ft 194 kts 281°
2026-05-04 17:37 49.19885 -123.28335 1994 ft 213 kts 280°
2026-05-04 17:37 49.20152 -123.30655 2207 ft 228 kts 281°
2026-05-04 17:38 49.20410 -123.33064 2697 ft 231 kts 275°
2026-05-04 17:38 49.20120 -123.35473 3150 ft 236 kts 242°
2026-05-04 17:38 49.19020 -123.37342 3576 ft 247 kts 211°
2026-05-04 17:38 49.17340 -123.38195 3820 ft 265 kts 181°
2026-05-04 17:39 49.14075 -123.35868 4936 ft 275 kts 125°
2026-05-04 17:39 49.13240 -123.33245 5566 ft 277 kts 108°
2026-05-04 17:39 49.12658 -123.30429 6208 ft 280 kts 105°
2026-05-04 17:40 49.12145 -123.27550 6837 ft 282 kts 97°
2026-05-04 17:40 49.12002 -123.24551 7435 ft 285 kts 92°
2026-05-04 17:40 49.11891 -123.21515 8027 ft 288 kts 92°
2026-05-04 17:40 49.11781 -123.18447 8602 ft 291 kts 92°
2026-05-04 17:41 49.11669 -123.15354 9158 ft 294 kts 92°
2026-05-04 17:41 49.11554 -123.12224 9710 ft 297 kts 92°
2026-05-04 17:41 49.11434 -123.09067 10229 ft 302 kts 92°
2026-05-04 17:41 49.11309 -123.05772 10357 ft 321 kts 92°
2026-05-04 17:42 49.11177 -123.02277 10487 ft 339 kts 92°
2026-05-04 17:42 49.11035 -122.98602 10616 ft 356 kts 92°
2026-05-04 17:42 49.10886 -122.94796 10755 ft 370 kts 92°
2026-05-04 17:42 49.10730 -122.90834 11150 ft 377 kts 92°
2026-05-04 17:43 49.10571 -122.86820 11652 ft 380 kts 92°
2026-05-04 17:43 49.10410 -122.82779 12142 ft 383 kts 92°
2026-05-04 17:43 49.10247 -122.78704 12659 ft 386 kts 91°
2026-05-04 17:43 49.10084 -122.74609 13140 ft 388 kts 91°
2026-05-04 17:44 49.09916 -122.70482 13622 ft 391 kts 91°
2026-05-04 17:44 49.09742 -122.66326 14092 ft 394 kts 91°
2026-05-04 17:44 49.09562 -122.62133 14548 ft 397 kts 91°
2026-05-04 17:44 49.09383 -122.57919 14992 ft 399 kts 91°
2026-05-04 17:45 49.09203 -122.53671 15423 ft 402 kts 91°
2026-05-04 17:45 49.09060 -122.49410 15823 ft 403 kts 86°
2026-05-04 17:45 49.09286 -122.45146 16201 ft 404 kts 82°
2026-05-04 17:45 49.09553 -122.40934 16568 ft 406 kts 82°
2026-05-04 17:46 49.09827 -122.36582 16943 ft 408 kts 82°
2026-05-04 17:46 49.10089 -122.32321 17287 ft 410 kts 82°
2026-05-04 17:46 49.10356 -122.27981 17630 ft 412 kts 82°
2026-05-04 17:46 49.10625 -122.23612 17987 ft 414 kts 82°
2026-05-04 17:47 49.10891 -122.19227 18334 ft 416 kts 82°
2026-05-04 17:47 49.11156 -122.14825 18648 ft 418 kts 82°
2026-05-04 17:47 49.11420 -122.10401 19045 ft 419 kts 82°
2026-05-04 17:47 49.11684 -122.05944 19343 ft 422 kts 82°
2026-05-04 17:48 49.11948 -122.01471 19653 ft 425 kts 82°
2026-05-04 17:48 49.12214 -121.96971 19970 ft 427 kts 81°
2026-05-04 17:48 49.12481 -121.92440 20282 ft 429 kts 81°
2026-05-04 17:48 49.12747 -121.87885 20608 ft 431 kts 81°
2026-05-04 17:49 49.12923 -121.84858 20830 ft 433 kts 81°
2026-05-04 17:49 49.13190 -121.80268 21151 ft 435 kts 81°
2026-05-04 17:49 49.13457 -121.75655 21503 ft 437 kts 81°
2026-05-04 17:49 49.13720 -121.71025 21805 ft 440 kts 81°
2026-05-04 17:50 49.14064 -121.64831 22194 ft 443 kts 81°
2026-05-04 17:50 49.14321 -121.60142 22511 ft 444 kts 82°
2026-05-04 17:50 49.14497 -121.56965 22675 ft 445 kts 82°
2026-05-04 17:50 49.14758 -121.52254 22925 ft 445 kts 81°
2026-05-04 17:51 49.15017 -121.47591 23188 ft 448 kts 81°
2026-05-04 17:51 49.15279 -121.42842 23481 ft 450 kts 82°
2026-05-04 17:51 49.15538 -121.38071 23795 ft 452 kts 81°
2026-05-04 17:51 49.15793 -121.33283 24072 ft 454 kts 81°
2026-05-04 17:52 49.16045 -121.28466 24311 ft 456 kts 81°
2026-05-04 17:52 49.16295 -121.23627 24598 ft 458 kts 81°
2026-05-04 17:52 49.16545 -121.18772 24824 ft 459 kts 81°
2026-05-04 17:52 49.16794 -121.13888 25126 ft 461 kts 82°
2026-05-04 17:53 49.17042 -121.08999 25449 ft 462 kts 81°
2026-05-04 17:53 49.17290 -121.04095 25687 ft 463 kts 81°
2026-05-04 17:53 49.17537 -120.99183 25952 ft 464 kts 81°
2026-05-04 17:53 49.17784 -120.94267 26195 ft 465 kts 81°
2026-05-04 17:54 49.18033 -120.89327 26432 ft 467 kts 81°
2026-05-04 17:54 49.18279 -120.84370 26636 ft 468 kts 81°
2026-05-04 17:54 49.18519 -120.79406 26838 ft 469 kts 81°
2026-05-04 17:54 49.18756 -120.74422 27041 ft 470 kts 81°
2026-05-04 17:55 49.18991 -120.69434 27255 ft 471 kts 81°
2026-05-04 17:55 49.19225 -120.64427 27454 ft 472 kts 81°
2026-05-04 17:55 49.19459 -120.59414 27624 ft 474 kts 81°
2026-05-04 17:55 49.19690 -120.54453 27780 ft 474 kts 81°
2026-05-04 17:56 49.19924 -120.49423 28012 ft 473 kts 81°
2026-05-04 17:56 49.20152 -120.44412 28247 ft 473 kts 81°
2026-05-04 17:56 49.20377 -120.39402 28482 ft 472 kts 81°
2026-05-04 17:56 49.20602 -120.34404 28680 ft 471 kts 81°
2026-05-04 17:57 49.20826 -120.29401 28875 ft 471 kts 81°
2026-05-04 17:57 49.21047 -120.24409 29072 ft 471 kts 81°
2026-05-04 17:57 49.21263 -120.19421 29274 ft 470 kts 81°
2026-05-04 17:57 49.21477 -120.14437 29484 ft 469 kts 80°
2026-05-04 17:58 49.21690 -120.09457 29683 ft 469 kts 81°
2026-05-04 17:58 49.21900 -120.04485 29884 ft 468 kts 80°
2026-05-04 17:58 49.22107 -119.99516 30071 ft 468 kts 80°
2026-05-04 17:58 49.22312 -119.94550 30239 ft 468 kts 80°
2026-05-04 17:59 49.22513 -119.89582 30379 ft 468 kts 80°
2026-05-04 17:59 49.22711 -119.84616 30556 ft 467 kts 80°
2026-05-04 17:59 49.23101 -119.74777 30948 ft 465 kts 80°
2026-05-04 18:00 49.23291 -119.69838 31143 ft 465 kts 80°
2026-05-04 18:00 49.23479 -119.64914 31304 ft 463 kts 80°
2026-05-04 18:00 49.23667 -119.59989 31465 ft 463 kts 80°
2026-05-04 18:00 49.23855 -119.55069 31597 ft 464 kts 80°
2026-05-04 18:01 49.24043 -119.50131 31724 ft 465 kts 79°
2026-05-04 18:01 49.24231 -119.45187 31874 ft 466 kts 80°
2026-05-04 18:01 49.24414 -119.40239 32070 ft 466 kts 79°
2026-05-04 18:02 49.24765 -119.30353 32503 ft 464 kts 80°
2026-05-04 18:02 49.24933 -119.25423 32729 ft 463 kts 80°
2026-05-04 18:02 49.24905 -119.20464 32887 ft 469 kts 86°
2026-05-04 18:02 49.24717 -119.15502 32925 ft 465 kts 86°
2026-05-04 18:03 49.24333 -119.05703 32924 ft 464 kts 86°
2026-05-04 18:03 49.23937 -118.95838 32922 ft 464 kts 86°
2026-05-04 18:04 49.23540 -118.85967 32923 ft 465 kts 86°
2026-05-04 18:05 49.22932 -118.71150 32925 ft 466 kts 86°
2026-05-04 18:05 49.22519 -118.61246 32927 ft 467 kts 86°
2026-05-04 18:06 49.21874 -118.46453 32926 ft 467 kts 86°
2026-05-04 18:06 49.21422 -118.36520 32932 ft 468 kts 86°
2026-05-04 18:07 49.20965 -118.26588 32932 ft 468 kts 86°
2026-05-04 18:07 49.20504 -118.16651 32937 ft 468 kts 86°
2026-05-04 18:08 49.20032 -118.06712 32943 ft 468 kts 86°
2026-05-04 18:08 49.19561 -117.96779 32944 ft 468 kts 86°
2026-05-04 18:09 49.18585 -117.76952 32932 ft 470 kts 86°
2026-05-04 18:10 49.18081 -117.66997 32941 ft 471 kts 87°
2026-05-04 18:10 49.17563 -117.57018 32931 ft 470 kts 87°
2026-05-04 18:11 49.17038 -117.47055 32932 ft 471 kts 87°
2026-05-04 18:11 49.16513 -117.37068 32936 ft 471 kts 87°
2026-05-04 18:12 49.15977 -117.27083 32934 ft 471 kts 87°
2026-05-04 18:12 49.15427 -117.17104 32932 ft 471 kts 88°
2026-05-04 18:13 49.14863 -117.07123 32937 ft 473 kts 88°
2026-05-04 18:14 49.14014 -116.92207 32938 ft 472 kts 88°
2026-05-04 18:14 49.13437 -116.82217 32941 ft 473 kts 88°
2026-05-04 18:15 49.12251 -116.62224 32947 ft 473 kts 88°
2026-05-04 18:16 49.11638 -116.52216 32954 ft 473 kts 88°
2026-05-04 18:16 49.11022 -116.42201 32963 ft 474 kts 88°
2026-05-04 18:17 49.10080 -116.27162 32967 ft 474 kts 88°
2026-05-04 18:18 49.09128 -116.12185 32973 ft 475 kts 88°
2026-05-04 18:18 49.08470 -116.02160 32983 ft 475 kts 88°
2026-05-04 18:19 49.07466 -115.87095 32979 ft 476 kts 88°
2026-05-04 18:19 49.06778 -115.77035 32981 ft 477 kts 88°
2026-05-04 18:20 49.06093 -115.66967 32986 ft 477 kts 88°
2026-05-04 18:20 49.05404 -115.56907 32998 ft 477 kts 88°
2026-05-04 18:21 49.04715 -115.46894 33007 ft 478 kts 88°
2026-05-04 18:21 49.03999 -115.36811 33004 ft 478 kts 89°
2026-05-04 18:22 49.03266 -115.26747 33014 ft 479 kts 88°
2026-05-04 18:22 49.02530 -115.16667 33020 ft 478 kts 88°
2026-05-04 18:23 49.01797 -115.06583 33026 ft 479 kts 88°
2026-05-04 18:23 49.01042 -114.96495 33025 ft 479 kts 89°
2026-05-04 18:24 49.00279 -114.86473 33024 ft 480 kts 89°
2026-05-04 18:24 48.99503 -114.76363 33030 ft 480 kts 89°
2026-05-04 18:25 48.98699 -114.66251 33046 ft 482 kts 89°
2026-05-04 18:25 48.97844 -114.56136 33053 ft 482 kts 89°
2026-05-04 18:26 48.96973 -114.46007 33059 ft 482 kts 89°
2026-05-04 18:26 48.96108 -114.35886 33067 ft 483 kts 89°
2026-05-04 18:27 48.95249 -114.25961 33072 ft 483 kts 89°
2026-05-04 18:27 48.94362 -114.15839 33070 ft 482 kts 89°
2026-05-04 18:28 48.93469 -114.05731 33071 ft 482 kts 89°
2026-05-04 18:28 48.92580 -113.95678 33074 ft 483 kts 89°
2026-05-04 18:29 48.91671 -113.85555 33065 ft 484 kts 89°
2026-05-04 18:29 48.90751 -113.75421 33068 ft 485 kts 89°
2026-05-04 18:30 48.89341 -113.60199 33071 ft 486 kts 90°
2026-05-04 18:31 48.88385 -113.50024 33070 ft 486 kts 90°
2026-05-04 18:31 48.87425 -113.39846 33073 ft 486 kts 90°
2026-05-04 18:32 48.86462 -113.29674 33076 ft 487 kts 90°
2026-05-04 18:32 48.85484 -113.19498 33075 ft 487 kts 90°
2026-05-04 18:33 48.84504 -113.09390 33078 ft 487 kts 90°
2026-05-04 18:33 48.83510 -112.99208 33077 ft 488 kts 90°
2026-05-04 18:34 48.82504 -112.89025 33077 ft 488 kts 90°
2026-05-04 18:34 48.81486 -112.78839 33078 ft 488 kts 90°
2026-05-04 18:35 48.80460 -112.68652 33079 ft 489 kts 90°
2026-05-04 18:35 48.79427 -112.58464 33078 ft 489 kts 90°
2026-05-04 18:36 48.78389 -112.48340 33080 ft 489 kts 90°
2026-05-04 18:36 48.77333 -112.38149 33083 ft 489 kts 90°
2026-05-04 18:37 48.76275 -112.27965 33086 ft 489 kts 90°
2026-05-04 18:37 48.75203 -112.17772 33087 ft 490 kts 91°
2026-05-04 18:38 48.74116 -112.07575 33089 ft 490 kts 91°
2026-05-04 18:38 48.73025 -111.97375 33093 ft 490 kts 91°
2026-05-04 18:39 48.71930 -111.87182 33093 ft 491 kts 91°
2026-05-04 18:39 48.70818 -111.76961 33098 ft 492 kts 91°
2026-05-04 18:40 48.69691 -111.66740 33108 ft 493 kts 91°
2026-05-04 18:40 48.68552 -111.56510 33115 ft 493 kts 91°
2026-05-04 18:41 48.67412 -111.46286 33116 ft 493 kts 91°
2026-05-04 18:41 48.66265 -111.36127 33108 ft 493 kts 91°
2026-05-04 18:42 48.65097 -111.25901 33103 ft 493 kts 91°
2026-05-04 18:42 48.63915 -111.15672 33097 ft 494 kts 92°
2026-05-04 18:43 48.62733 -111.05442 33088 ft 494 kts 92°
2026-05-04 18:43 48.61598 -110.95647 33083 ft 495 kts 92°
2026-05-04 18:44 48.60390 -110.85329 33078 ft 496 kts 92°
2026-05-04 18:44 48.59176 -110.75062 33073 ft 497 kts 92°
2026-05-04 18:45 48.57955 -110.64787 33071 ft 498 kts 92°
2026-05-04 18:45 48.56720 -110.54491 33059 ft 498 kts 92°
2026-05-04 18:46 48.55485 -110.44261 33055 ft 499 kts 93°
2026-05-04 18:46 48.54229 -110.33962 33051 ft 500 kts 93°
2026-05-04 18:47 48.52957 -110.23649 33052 ft 500 kts 94°
2026-05-04 18:47 48.51679 -110.13340 33052 ft 500 kts 94°
2026-05-04 18:48 48.50383 -110.03026 33048 ft 500 kts 94°
2026-05-04 18:48 48.49235 -109.94470 33046 ft 502 kts 96°
2026-05-04 18:49 48.47690 -109.84196 33038 ft 503 kts 97°
2026-05-04 18:49 48.46073 -109.73938 33042 ft 504 kts 97°
2026-05-04 18:50 48.44473 -109.63667 33044 ft 504 kts 97°
2026-05-04 18:50 48.42901 -109.53384 33040 ft 504 kts 97°
2026-05-04 18:51 48.41320 -109.43111 33041 ft 504 kts 97°
2026-05-04 18:51 48.39718 -109.32838 33036 ft 504 kts 97°
2026-05-04 18:52 48.38101 -109.22562 33032 ft 505 kts 97°
2026-05-04 18:52 48.36480 -109.12281 33021 ft 506 kts 98°
2026-05-04 18:53 48.34843 -109.01984 33016 ft 506 kts 98°
2026-05-04 18:53 48.33215 -108.91838 33007 ft 507 kts 98°
2026-05-04 18:54 48.31553 -108.81530 33002 ft 508 kts 98°
2026-05-04 18:54 48.29877 -108.71200 32995 ft 510 kts 99°
2026-05-04 18:55 48.28202 -108.60922 32984 ft 511 kts 99°
2026-05-04 18:55 48.25646 -108.45340 32979 ft 514 kts 99°
2026-05-04 18:56 48.23945 -108.34987 32977 ft 515 kts 100°
2026-05-04 18:56 48.22205 -108.24545 32975 ft 517 kts 100°
2026-05-04 18:57 48.20446 -108.14090 32968 ft 518 kts 100°
2026-05-04 18:57 48.18684 -108.03616 32968 ft 519 kts 100°
2026-05-04 18:58 48.16906 -107.93127 32973 ft 520 kts 101°
2026-05-04 18:58 48.15114 -107.82637 32972 ft 520 kts 101°
2026-05-04 18:59 48.13318 -107.72140 32985 ft 521 kts 101°
2026-05-04 18:59 48.11509 -107.61651 32987 ft 521 kts 101°
2026-05-04 19:00 48.09683 -107.51158 32999 ft 521 kts 101°
2026-05-04 19:00 48.07849 -107.40683 33002 ft 520 kts 101°
2026-05-04 19:01 48.06028 -107.30285 33005 ft 520 kts 101°
2026-05-04 19:01 48.04182 -107.19830 33005 ft 520 kts 101°
2026-05-04 19:02 48.02325 -107.09394 33006 ft 520 kts 102°
2026-05-04 19:02 48.00456 -106.98973 33001 ft 519 kts 102°
2026-05-04 19:03 47.98586 -106.88558 32985 ft 520 kts 103°
2026-05-04 19:03 47.96697 -106.78128 32974 ft 521 kts 103°
2026-05-04 19:04 47.94793 -106.67685 32969 ft 521 kts 103°
2026-05-04 19:04 47.92901 -106.57309 32968 ft 522 kts 103°
2026-05-04 19:05 47.90984 -106.46875 32959 ft 522 kts 103°
2026-05-04 19:05 47.89051 -106.36440 32965 ft 523 kts 103°
2026-05-04 19:06 47.87101 -106.25999 32961 ft 523 kts 103°
2026-05-04 19:06 47.85151 -106.15554 32967 ft 524 kts 103°
2026-05-04 19:07 47.83192 -106.05096 32962 ft 524 kts 103°
2026-05-04 19:07 47.81630 -105.96841 32965 ft 524 kts 104°
2026-05-04 19:08 47.79741 -105.86443 32972 ft 522 kts 96°
2026-05-04 19:08 47.78669 -105.75779 32971 ft 521 kts 95°
2026-05-04 19:09 47.77610 -105.65105 32974 ft 522 kts 95°
2026-05-04 19:09 47.76533 -105.54416 32973 ft 522 kts 96°
2026-05-04 19:10 47.75444 -105.43757 32974 ft 522 kts 96°
2026-05-04 19:10 47.74355 -105.33172 32964 ft 522 kts 96°
2026-05-04 19:11 47.73255 -105.22510 32974 ft 522 kts 96°
2026-05-04 19:11 47.72141 -105.11857 32970 ft 522 kts 96°
2026-05-04 19:12 47.70448 -104.95911 32963 ft 521 kts 97°
2026-05-04 19:13 47.69316 -104.85283 32960 ft 521 kts 97°
2026-05-04 19:13 47.68172 -104.74679 32959 ft 520 kts 97°
2026-05-04 19:14 47.67005 -104.64081 32955 ft 520 kts 97°
2026-05-04 19:14 47.65842 -104.53569 32955 ft 519 kts 97°
2026-05-04 19:15 47.64675 -104.42998 32956 ft 519 kts 97°
2026-05-04 19:15 47.63503 -104.32436 32959 ft 519 kts 98°
2026-05-04 19:16 47.62309 -104.21896 32956 ft 518 kts 98°
2026-05-04 19:16 47.61109 -104.11359 32951 ft 518 kts 98°
2026-05-04 19:17 47.59909 -104.00910 32954 ft 518 kts 98°
2026-05-04 19:17 47.58690 -103.90397 32956 ft 518 kts 98°
2026-05-04 19:18 47.57468 -103.79886 32953 ft 518 kts 98°
2026-05-04 19:18 47.56228 -103.69373 32946 ft 518 kts 98°
2026-05-04 19:19 47.54983 -103.58863 32941 ft 518 kts 98°
2026-05-04 19:19 47.53733 -103.48344 32935 ft 519 kts 99°
2026-05-04 19:20 47.52469 -103.37893 32929 ft 520 kts 99°
2026-05-04 19:20 47.51188 -103.27373 32921 ft 520 kts 99°
2026-05-04 19:21 47.49900 -103.16852 32916 ft 520 kts 99°
2026-05-04 19:21 47.48603 -103.06328 32907 ft 521 kts 99°
2026-05-04 19:22 47.47298 -102.95803 32911 ft 521 kts 99°
2026-05-04 19:22 47.45977 -102.85275 32914 ft 521 kts 99°
2026-05-04 19:23 47.44653 -102.74764 32904 ft 520 kts 99°
2026-05-04 19:23 47.43311 -102.64259 32905 ft 520 kts 100°
2026-05-04 19:24 47.41959 -102.53752 32907 ft 520 kts 100°
2026-05-04 19:24 47.40607 -102.43272 32913 ft 520 kts 100°
2026-05-04 19:25 47.39257 -102.32868 32905 ft 519 kts 100°
2026-05-04 19:25 47.37879 -102.22397 32900 ft 519 kts 100°
2026-05-04 19:26 47.36491 -102.11950 32894 ft 519 kts 100°
2026-05-04 19:26 47.35100 -102.01507 32891 ft 519 kts 100°
2026-05-04 19:27 47.33701 -101.91062 32885 ft 519 kts 101°
2026-05-04 19:27 47.32287 -101.80615 32880 ft 520 kts 101°
2026-05-04 19:28 47.30862 -101.70175 32878 ft 520 kts 101°
2026-05-04 19:28 47.29430 -101.59733 32875 ft 520 kts 101°
2026-05-04 19:29 47.27997 -101.49351 32873 ft 521 kts 101°
2026-05-04 19:29 47.26542 -101.38902 32868 ft 521 kts 101°
2026-05-04 19:30 47.25077 -101.28450 32868 ft 522 kts 101°
2026-05-04 19:30 47.23605 -101.17990 32868 ft 522 kts 102°
2026-05-04 19:31 47.22117 -101.07512 32865 ft 523 kts 102°
2026-05-04 19:31 47.20612 -100.97041 32864 ft 523 kts 102°
2026-05-04 19:32 47.19101 -100.86578 32863 ft 524 kts 102°
2026-05-04 19:32 47.17588 -100.76107 32859 ft 524 kts 102°
2026-05-04 19:33 47.16061 -100.65638 32855 ft 524 kts 102°
2026-05-04 19:33 47.14520 -100.55177 32854 ft 524 kts 102°
2026-05-04 19:34 47.12982 -100.44788 32855 ft 524 kts 103°
2026-05-04 19:34 47.11426 -100.34331 32854 ft 524 kts 103°
2026-05-04 19:35 47.09858 -100.23876 32850 ft 525 kts 103°
2026-05-04 19:35 47.08278 -100.13407 32847 ft 525 kts 103°
2026-05-04 19:36 47.06686 -100.02953 32845 ft 525 kts 103°
2026-05-04 19:36 47.05087 -99.92509 32834 ft 525 kts 103°
2026-05-04 19:37 47.03487 -99.82119 32820 ft 526 kts 103°
2026-05-04 19:37 47.01864 -99.71661 32808 ft 526 kts 104°
2026-05-04 19:38 47.00225 -99.61210 32802 ft 527 kts 104°
2026-05-04 19:38 46.98588 -99.50744 32802 ft 527 kts 104°
2026-05-04 19:39 46.96938 -99.40273 32802 ft 528 kts 104°
2026-05-04 19:39 46.95272 -99.29808 32803 ft 528 kts 104°
2026-05-04 19:40 46.93593 -99.19338 32802 ft 529 kts 104°
2026-05-04 19:40 46.91907 -99.08866 32803 ft 529 kts 104°
2026-05-04 19:41 46.90209 -98.98405 32800 ft 529 kts 104°
2026-05-04 19:41 46.88510 -98.88010 32800 ft 529 kts 104°
2026-05-04 19:42 46.86794 -98.77545 32801 ft 530 kts 105°
2026-05-04 19:42 46.85067 -98.67074 32802 ft 530 kts 105°
2026-05-04 19:43 46.83327 -98.56588 32801 ft 530 kts 105°
2026-05-04 19:43 46.81586 -98.46185 32799 ft 531 kts 105°
2026-05-04 19:44 46.79822 -98.35714 32794 ft 532 kts 105°
2026-05-04 19:44 46.78045 -98.25231 32791 ft 533 kts 105°
2026-05-04 19:45 46.76262 -98.14727 32789 ft 534 kts 105°
2026-05-04 19:45 46.74468 -98.04218 32788 ft 534 kts 106°
2026-05-04 19:46 46.72959 -97.95480 32788 ft 534 kts 106°
2026-05-04 19:46 46.71131 -97.84977 32785 ft 535 kts 106°
2026-05-04 19:47 46.69304 -97.74466 32786 ft 535 kts 106°
2026-05-04 19:47 46.67466 -97.63968 32781 ft 535 kts 107°
2026-05-04 19:48 46.65609 -97.53467 32789 ft 535 kts 107°
2026-05-04 19:48 46.63747 -97.42981 32785 ft 535 kts 107°
2026-05-04 19:49 46.61878 -97.32500 32788 ft 535 kts 107°
2026-05-04 19:49 46.60001 -97.22018 32792 ft 535 kts 107°
2026-05-04 19:50 46.58131 -97.11630 32791 ft 535 kts 107°
2026-05-04 19:50 46.56235 -97.01184 32789 ft 534 kts 107°
2026-05-04 19:51 46.54330 -96.90748 32787 ft 534 kts 107°
2026-05-04 19:51 46.52416 -96.80322 32786 ft 534 kts 107°
2026-05-04 19:52 46.50495 -96.69905 32777 ft 534 kts 108°
2026-05-04 19:52 46.48563 -96.59504 32774 ft 534 kts 108°
2026-05-04 19:53 46.46622 -96.49105 32762 ft 534 kts 108°
2026-05-04 19:53 46.44667 -96.38698 32754 ft 535 kts 108°
2026-05-04 19:54 46.42699 -96.28282 32749 ft 536 kts 108°
2026-05-04 19:54 46.40736 -96.17935 32745 ft 536 kts 109°
2026-05-04 19:55 46.38750 -96.07514 32744 ft 537 kts 109°
2026-05-04 19:55 46.36750 -95.97081 32745 ft 538 kts 109°
2026-05-04 19:56 46.34739 -95.86639 32746 ft 538 kts 109°
2026-05-04 19:56 46.32716 -95.76211 32744 ft 539 kts 109°
2026-05-04 19:57 46.30677 -95.65769 32743 ft 539 kts 109°
2026-05-04 19:57 46.28629 -95.55344 32745 ft 539 kts 109°
2026-05-04 19:58 46.26573 -95.44933 32743 ft 538 kts 109°
2026-05-04 19:58 46.24524 -95.34616 32744 ft 538 kts 109°
2026-05-04 19:59 46.22456 -95.24236 32738 ft 537 kts 109°
2026-05-04 19:59 46.20385 -95.13878 32733 ft 537 kts 109°
2026-05-04 20:00 46.18314 -95.03549 32731 ft 536 kts 109°
2026-05-04 20:00 46.16227 -94.93214 32716 ft 536 kts 110°
2026-05-04 20:01 46.14131 -94.82903 32725 ft 536 kts 110°
2026-05-04 20:01 46.12015 -94.72596 32712 ft 536 kts 110°
2026-05-04 20:02 46.09906 -94.62378 32694 ft 536 kts 110°
2026-05-04 20:02 46.07786 -94.52073 32686 ft 537 kts 110°
2026-05-04 20:03 46.05651 -94.41753 32674 ft 537 kts 110°
2026-05-04 20:03 46.03490 -94.31442 32656 ft 538 kts 111°
2026-05-04 20:04 46.01309 -94.21133 32660 ft 539 kts 111°
2026-05-04 20:04 45.99127 -94.10810 32667 ft 540 kts 111°
2026-05-04 20:05 45.96944 -94.00476 32670 ft 540 kts 111°
2026-05-04 20:05 45.94746 -93.90147 32676 ft 541 kts 111°
2026-05-04 20:06 45.92534 -93.79817 32685 ft 541 kts 111°
2026-05-04 20:06 45.90309 -93.69487 32693 ft 541 kts 111°
2026-05-04 20:07 45.88094 -93.59253 32700 ft 541 kts 111°
2026-05-04 20:07 45.85860 -93.48944 32698 ft 540 kts 111°
2026-05-04 20:08 45.83623 -93.38668 32703 ft 539 kts 111°
2026-05-04 20:08 45.81374 -93.28422 32712 ft 538 kts 112°
2026-05-04 20:09 45.79116 -93.18206 32711 ft 537 kts 111°
2026-05-04 20:09 45.76863 -93.08025 32703 ft 536 kts 111°
2026-05-04 20:10 45.74621 -92.97914 32690 ft 535 kts 112°
2026-05-04 20:10 45.72356 -92.87775 32680 ft 535 kts 112°
2026-05-04 20:11 45.70076 -92.77638 32671 ft 534 kts 112°
2026-05-04 20:11 45.67798 -92.67527 32666 ft 534 kts 112°
2026-05-04 20:12 45.65511 -92.57443 32657 ft 533 kts 112°
2026-05-04 20:12 45.63210 -92.47376 32646 ft 533 kts 112°
2026-05-04 20:13 45.60901 -92.37324 32633 ft 532 kts 112°
2026-05-04 20:13 45.58589 -92.27281 32621 ft 533 kts 112°
2026-05-04 20:14 45.56269 -92.17237 32618 ft 533 kts 113°
2026-05-04 20:14 45.53936 -92.07191 32605 ft 533 kts 113°
2026-05-04 20:15 45.51605 -91.97216 32602 ft 533 kts 113°
2026-05-04 20:15 45.49247 -91.87186 32606 ft 534 kts 113°
2026-05-04 20:16 45.46886 -91.77149 32609 ft 534 kts 113°
2026-05-04 20:16 45.44529 -91.67130 32615 ft 533 kts 113°
2026-05-04 20:17 45.42172 -91.57194 32613 ft 532 kts 113°
2026-05-04 20:17 45.39788 -91.47230 32616 ft 531 kts 113°
2026-05-04 20:18 45.37399 -91.37289 32605 ft 531 kts 113°
2026-05-04 20:18 45.35010 -91.27365 32604 ft 530 kts 113°
2026-05-04 20:19 45.32622 -91.17459 32599 ft 529 kts 113°
2026-05-04 20:19 45.30224 -91.07576 32592 ft 529 kts 113°
2026-05-04 20:20 45.27814 -90.97705 32587 ft 528 kts 113°
2026-05-04 20:20 45.25397 -90.87861 32578 ft 528 kts 113°
2026-05-04 20:21 45.22994 -90.78099 32572 ft 527 kts 113°
2026-05-04 20:21 45.19354 -90.63381 32563 ft 527 kts 114°
2026-05-04 20:22 45.16913 -90.53581 32552 ft 527 kts 114°
2026-05-04 20:22 45.14459 -90.43805 32539 ft 527 kts 114°
2026-05-04 20:23 45.12006 -90.34025 32531 ft 527 kts 114°
2026-05-04 20:23 45.09545 -90.24258 32531 ft 527 kts 114°
2026-05-04 20:24 45.07078 -90.14499 32532 ft 527 kts 114°
2026-05-04 20:24 45.04607 -90.04749 32535 ft 526 kts 114°
2026-05-04 20:25 45.02136 -89.95083 32536 ft 526 kts 114°
2026-05-04 20:25 44.99641 -89.85367 32540 ft 525 kts 114°
2026-05-04 20:26 44.97151 -89.75672 32537 ft 524 kts 114°
2026-05-04 20:26 44.94656 -89.66022 32533 ft 523 kts 114°
2026-05-04 20:27 44.92163 -89.56384 32528 ft 522 kts 114°
2026-05-04 20:27 44.89663 -89.46785 32526 ft 522 kts 114°
2026-05-04 20:28 44.87146 -89.37191 32525 ft 521 kts 114°
2026-05-04 20:28 44.84626 -89.27617 32520 ft 520 kts 114°
2026-05-04 20:29 44.82117 -89.18066 32519 ft 520 kts 114°
2026-05-04 20:29 44.79598 -89.08526 32547 ft 521 kts 114°
2026-05-04 20:30 44.78346 -89.03810 32752 ft 521 kts 114°
2026-05-04 20:30 44.77074 -88.99038 32973 ft 521 kts 115°
2026-05-04 20:30 44.75796 -88.94260 33217 ft 521 kts 115°
2026-05-04 20:30 44.74520 -88.89497 33454 ft 521 kts 114°
2026-05-04 20:31 44.73244 -88.84732 33674 ft 521 kts 114°
2026-05-04 20:31 44.71967 -88.79974 33898 ft 520 kts 115°
2026-05-04 20:31 44.70683 -88.75208 34117 ft 520 kts 115°
2026-05-04 20:31 44.69406 -88.70462 34347 ft 519 kts 115°
2026-05-04 20:32 44.68129 -88.65719 34482 ft 519 kts 114°
2026-05-04 20:32 44.66854 -88.60984 34496 ft 517 kts 114°
2026-05-04 20:32 44.64305 -88.51544 34489 ft 516 kts 115°
2026-05-04 20:33 44.61746 -88.42133 34486 ft 516 kts 115°
2026-05-04 20:33 44.59168 -88.32740 34476 ft 515 kts 115°
2026-05-04 20:34 44.56608 -88.23439 34465 ft 514 kts 115°
2026-05-04 20:34 44.54067 -88.14063 34469 ft 514 kts 113°
2026-05-04 20:35 44.51714 -88.04589 34471 ft 514 kts 112°
2026-05-04 20:35 44.49411 -87.95102 34473 ft 514 kts 112°
2026-05-04 20:36 44.47048 -87.85665 34477 ft 513 kts 112°
2026-05-04 20:36 44.44642 -87.76261 34481 ft 512 kts 113°
2026-05-04 20:37 44.42228 -87.66880 34482 ft 512 kts 113°
2026-05-04 20:37 44.39841 -87.57561 34480 ft 512 kts 113°
2026-05-04 20:38 44.37431 -87.48181 34480 ft 512 kts 113°
2026-05-04 20:38 44.35014 -87.38812 34481 ft 513 kts 113°
2026-05-04 20:39 44.32585 -87.29450 34481 ft 512 kts 113°
2026-05-04 20:39 44.30154 -87.20100 34481 ft 512 kts 113°
2026-05-04 20:40 44.27716 -87.10759 34483 ft 512 kts 113°
2026-05-04 20:40 44.25274 -87.01428 34491 ft 512 kts 113°
2026-05-04 20:41 44.22817 -86.92118 34499 ft 511 kts 113°
2026-05-04 20:41 44.20357 -86.82832 34507 ft 510 kts 113°
2026-05-04 20:42 44.17911 -86.73625 34515 ft 509 kts 113°
2026-05-04 20:42 44.15451 -86.64380 34522 ft 509 kts 113°
2026-05-04 20:43 44.12991 -86.55148 34534 ft 508 kts 113°
2026-05-04 20:43 44.10935 -86.47493 34541 ft 507 kts 113°
2026-05-04 20:44 44.08461 -86.38319 34542 ft 506 kts 113°
2026-05-04 20:44 44.05983 -86.29156 34546 ft 506 kts 113°
2026-05-04 20:45 44.03500 -86.20015 34547 ft 505 kts 113°
2026-05-04 20:45 44.01016 -86.10894 34547 ft 504 kts 113°
2026-05-04 20:46 43.98529 -86.01803 34549 ft 503 kts 113°
2026-05-04 20:46 43.96035 -85.92721 34546 ft 503 kts 113°
2026-05-04 20:47 43.93569 -85.83709 34544 ft 503 kts 113°
2026-05-04 20:47 43.91069 -85.74656 34551 ft 502 kts 114°
2026-05-04 20:48 43.88553 -85.65633 34560 ft 502 kts 114°
2026-05-04 20:48 43.86034 -85.56613 34563 ft 501 kts 113°
2026-05-04 20:49 43.83528 -85.47607 34567 ft 501 kts 114°
2026-05-04 20:49 43.81004 -85.38620 34570 ft 500 kts 114°
2026-05-04 20:50 43.78471 -85.29651 34566 ft 500 kts 113°
2026-05-04 20:50 43.75944 -85.20695 34558 ft 499 kts 113°
2026-05-04 20:51 43.73411 -85.11755 34567 ft 499 kts 113°
2026-05-04 20:51 43.70874 -85.02827 34568 ft 499 kts 113°
2026-05-04 20:52 43.68329 -84.93913 34569 ft 499 kts 113°
2026-05-04 20:52 43.65792 -84.85066 34577 ft 498 kts 113°
2026-05-04 20:53 43.63229 -84.76159 34574 ft 498 kts 113°
2026-05-04 20:53 43.60659 -84.67278 34579 ft 499 kts 113°
2026-05-04 20:54 43.58084 -84.58393 34580 ft 499 kts 113°
2026-05-04 20:54 43.55499 -84.49511 34574 ft 499 kts 113°
2026-05-04 20:55 43.52918 -84.40621 34575 ft 500 kts 113°
2026-05-04 20:55 43.50329 -84.31738 34578 ft 500 kts 113°
2026-05-04 20:56 43.47725 -84.22862 34583 ft 500 kts 113°
2026-05-04 20:56 43.45134 -84.14045 34584 ft 500 kts 114°
2026-05-04 20:57 43.42518 -84.05180 34585 ft 500 kts 114°
2026-05-04 20:57 43.39894 -83.96323 34591 ft 500 kts 113°
2026-05-04 20:58 43.37266 -83.87471 34592 ft 500 kts 113°
2026-05-04 20:58 43.34636 -83.78626 34594 ft 500 kts 112°
2026-05-04 20:59 43.33015 -83.69370 34601 ft 499 kts 94°
2026-05-04 20:59 43.33328 -83.59937 34594 ft 493 kts 78°
2026-05-04 21:00 43.34367 -83.50613 34593 ft 494 kts 78°
2026-05-04 21:00 43.35387 -83.41277 34589 ft 495 kts 79°
2026-05-04 21:01 43.36395 -83.31913 34575 ft 496 kts 79°
2026-05-04 21:01 43.37400 -83.22589 34581 ft 497 kts 79°
2026-05-04 21:02 43.38408 -83.13186 34583 ft 497 kts 79°
2026-05-04 21:02 43.39399 -83.03783 34583 ft 495 kts 79°
2026-05-04 21:03 43.39888 -82.99129 34127 ft 490 kts 79°
2026-05-04 21:03 43.40370 -82.94493 33485 ft 489 kts 79°
2026-05-04 21:03 43.40848 -82.89861 32802 ft 489 kts 80°
2026-05-04 21:03 43.41329 -82.85218 32094 ft 490 kts 80°
2026-05-04 21:04 43.41809 -82.80574 31370 ft 491 kts 81°
2026-05-04 21:04 43.42288 -82.75928 30815 ft 489 kts 81°
2026-05-04 21:04 43.42767 -82.71290 30593 ft 491 kts 81°
2026-05-04 21:04 43.43242 -82.66638 30620 ft 492 kts 81°
2026-05-04 21:05 43.44186 -82.57302 30620 ft 493 kts 81°
2026-05-04 21:05 43.45113 -82.48011 30621 ft 493 kts 81°
2026-05-04 21:06 43.46034 -82.38653 30625 ft 494 kts 81°
2026-05-04 21:06 43.46915 -82.29277 30626 ft 494 kts 85°
2026-05-04 21:07 43.47000 -82.19815 30623 ft 495 kts 89°
2026-05-04 21:07 43.47013 -82.10342 30620 ft 495 kts 89°
2026-05-04 21:08 43.47009 -82.00860 30597 ft 495 kts 90°
2026-05-04 21:08 43.47001 -81.96131 30362 ft 492 kts 90°
2026-05-04 21:08 43.46995 -81.91436 30112 ft 489 kts 89°
2026-05-04 21:09 43.46992 -81.86772 29861 ft 487 kts 90°
2026-05-04 21:09 43.46987 -81.82180 29614 ft 485 kts 89°
2026-05-04 21:09 43.46980 -81.77493 29361 ft 483 kts 90°
2026-05-04 21:09 43.46965 -81.72934 29114 ft 481 kts 90°
2026-05-04 21:10 43.46945 -81.68333 28864 ft 480 kts 90°
2026-05-04 21:10 43.46923 -81.63755 28614 ft 477 kts 90°
2026-05-04 21:10 43.46900 -81.59198 28364 ft 476 kts 90°
2026-05-04 21:10 43.46884 -81.54646 28112 ft 474 kts 90°
2026-05-04 21:11 43.46873 -81.50111 27862 ft 472 kts 90°
2026-05-04 21:11 43.46857 -81.45594 27611 ft 471 kts 90°
2026-05-04 21:11 43.46830 -81.41090 27361 ft 469 kts 90°
2026-05-04 21:11 43.46800 -81.36669 27114 ft 468 kts 90°
2026-05-04 21:12 43.46770 -81.32199 26864 ft 466 kts 90°
2026-05-04 21:12 43.46742 -81.27768 26489 ft 460 kts 90°
2026-05-04 21:12 43.46713 -81.23381 25941 ft 456 kts 90°
2026-05-04 21:12 43.46681 -81.19047 25435 ft 450 kts 90°
2026-05-04 21:13 43.46647 -81.14763 24930 ft 444 kts 90°
2026-05-04 21:13 43.46611 -81.10535 24443 ft 438 kts 90°
2026-05-04 21:13 43.46576 -81.06392 24222 ft 425 kts 90°
2026-05-04 21:13 43.46541 -81.02360 23866 ft 421 kts 90°
2026-05-04 21:14 43.46505 -80.98397 23419 ft 419 kts 90°
2026-05-04 21:14 43.46467 -80.94345 22994 ft 416 kts 90°
2026-05-04 21:14 43.46428 -80.90381 22568 ft 413 kts 90°
2026-05-04 21:14 43.46387 -80.86440 22143 ft 410 kts 91°
2026-05-04 21:15 43.46342 -80.82521 21724 ft 408 kts 91°
2026-05-04 21:15 43.46299 -80.78685 21303 ft 405 kts 91°
2026-05-04 21:15 43.46270 -80.76058 21012 ft 412 kts 91°
2026-05-04 21:16 43.46227 -80.73224 20864 ft 409 kts 92°
2026-05-04 21:16 43.46163 -80.69260 20235 ft 418 kts 91°
2026-05-04 21:16 43.46114 -80.65263 19783 ft 419 kts 91°
2026-05-04 21:16 43.46073 -80.61257 19313 ft 417 kts 91°
2026-05-04 21:17 43.46033 -80.57273 18848 ft 414 kts 91°
2026-05-04 21:17 43.45990 -80.53328 18383 ft 411 kts 92°
2026-05-04 21:17 43.45941 -80.49407 17916 ft 407 kts 92°
2026-05-04 21:17 43.45889 -80.45527 17457 ft 404 kts 92°
2026-05-04 21:18 43.45842 -80.41670 16999 ft 401 kts 91°
2026-05-04 21:18 43.46065 -80.37860 16547 ft 399 kts 80°
2026-05-04 21:18 43.46773 -80.34198 16106 ft 395 kts 68°
2026-05-04 21:18 43.47760 -80.30682 15656 ft 393 kts 68°
2026-05-04 21:19 43.48739 -80.27201 15329 ft 385 kts 68°
2026-05-04 21:19 43.49669 -80.23864 15199 ft 371 kts 68°
2026-05-04 21:19 43.50573 -80.20601 15033 ft 359 kts 68°
2026-05-04 21:19 43.51456 -80.17412 14698 ft 354 kts 68°
2026-05-04 21:20 43.52313 -80.14251 14287 ft 351 kts 69°
2026-05-04 21:20 43.53153 -80.11096 13834 ft 350 kts 69°
2026-05-04 21:20 43.53985 -80.07955 13381 ft 349 kts 69°
2026-05-04 21:20 43.54811 -80.04834 13027 ft 345 kts 70°
2026-05-04 21:21 43.55635 -80.01724 12566 ft 344 kts 69°
2026-05-04 21:21 43.56451 -79.98645 12178 ft 341 kts 70°
2026-05-04 21:21 43.57259 -79.95589 11757 ft 339 kts 70°
2026-05-04 21:21 43.58066 -79.92546 11340 ft 337 kts 70°
2026-05-04 21:22 43.58868 -79.89521 10909 ft 335 kts 71°
2026-05-04 21:22 43.59422 -79.86420 10363 ft 331 kts 84°
2026-05-04 21:22 43.59517 -79.83264 9763 ft 331 kts 92°
2026-05-04 21:22 43.59532 -79.80102 9392 ft 327 kts 91°
2026-05-04 21:23 43.59550 -79.76955 8935 ft 326 kts 92°
2026-05-04 21:23 43.59573 -79.73881 8450 ft 327 kts 92°
2026-05-04 21:23 43.59596 -79.70744 8233 ft 318 kts 92°
2026-05-04 21:23 43.59620 -79.67776 7990 ft 309 kts 92°
2026-05-04 21:24 43.59645 -79.64874 7644 ft 298 kts 92°
2026-05-04 21:24 43.59666 -79.62067 7297 ft 288 kts 92°
2026-05-04 21:24 43.59676 -79.59346 6942 ft 280 kts 93°
2026-05-04 21:24 43.59733 -79.56681 6594 ft 278 kts 84°
2026-05-04 21:25 43.60272 -79.54135 6249 ft 278 kts 64°
2026-05-04 21:25 43.61342 -79.51956 6003 ft 272 kts 44°
2026-05-04 21:25 43.62656 -79.50073 5999 ft 273 kts 44°
2026-05-04 21:25 43.63973 -79.48160 5909 ft 277 kts 44°
2026-05-04 21:26 43.65296 -79.46226 5549 ft 276 kts 45°
2026-05-04 21:26 43.66602 -79.44308 5226 ft 271 kts 45°
2026-05-04 21:26 43.67887 -79.42423 4873 ft 269 kts 45°
2026-05-04 21:26 43.69164 -79.40553 4519 ft 267 kts 45°
2026-05-04 21:27 43.70434 -79.38695 4173 ft 265 kts 46°
2026-05-04 21:27 43.71690 -79.36854 3985 ft 261 kts 46°
2026-05-04 21:27 43.72939 -79.35028 3994 ft 260 kts 46°
2026-05-04 21:27 43.74139 -79.33272 3980 ft 241 kts 46°
2026-05-04 21:28 43.75241 -79.31659 4000 ft 221 kts 46°
2026-05-04 21:28 43.76278 -79.30187 3987 ft 210 kts 38°
2026-05-04 21:28 43.77573 -79.29445 3997 ft 198 kts 356°
2026-05-04 21:28 43.78847 -79.29877 4004 ft 186 kts 325°
2026-05-04 21:29 43.79963 -79.30759 4008 ft 184 kts 320°
2026-05-04 21:29 43.81014 -79.31754 4007 ft 179 kts 306°
2026-05-04 21:29 43.81485 -79.33217 4012 ft 164 kts 269°
2026-05-04 21:29 43.81460 -79.34781 4010 ft 162 kts 261°
2026-05-04 21:30 43.81356 -79.36310 4008 ft 162 kts 260°
2026-05-04 21:30 43.81239 -79.37859 4005 ft 162 kts 259°
2026-05-04 21:30 43.80869 -79.39293 3997 ft 159 kts 237°
2026-05-04 21:30 43.80288 -79.40595 4008 ft 159 kts 237°
2026-05-04 21:31 43.79101 -79.43122 3617 ft 156 kts 232°
2026-05-04 21:31 43.78419 -79.44271 3504 ft 158 kts 229°
2026-05-04 21:31 43.77685 -79.45411 3321 ft 159 kts 228°
2026-05-04 21:32 43.76939 -79.46528 3119 ft 157 kts 227°
2026-05-04 21:32 43.76189 -79.47635 2913 ft 158 kts 226°
2026-05-04 21:32 43.75432 -79.48745 2714 ft 158 kts 226°
2026-05-04 21:32 43.74679 -79.49846 2501 ft 158 kts 226°
2026-05-04 21:33 43.73922 -79.50953 2299 ft 159 kts 226°
2026-05-04 21:33 43.73178 -79.52039 2076 ft 156 kts 226°
2026-05-04 21:33 43.72474 -79.53065 1878 ft 143 kts 227°
2026-05-04 21:33 43.71798 -79.54051 1699 ft 139 kts 226°
2026-05-04 21:34 43.71140 -79.55011 1512 ft 137 kts 225°
2026-05-04 21:34 43.70500 -79.55935 1341 ft 135 kts 227°
2026-05-04 21:34 43.69854 -79.56876 1149 ft 135 kts 227°
2026-05-04 21:34 43.69213 -79.57840 962 ft 136 kts 227°
2026-05-04 21:35 43.68566 -79.58776 806 ft 136 kts 228°
2026-05-04 21:35 43.67909 -79.59727 621 ft 137 kts 227°
2026-05-04 21:35 43.67292 -79.60618 565 ft 123 kts 226°
2026-05-04 21:35 43.66842 -79.61271 570 ft 62 kts 226°
2026-05-04 21:36 43.66630 -79.61579 560 ft 30 kts 226°
2026-05-04 21:36 43.66546 -79.61818 565 ft 25 kts 255°
2026-05-04 21:36 43.66592 -79.61974 567 ft 17 kts 318°
2026-05-04 21:36 43.66674 -79.61996 572 ft 11 kts 30°
2026-05-04 21:37 43.66746 -79.61910 566 ft 18 kts 42°
2026-05-04 21:37 43.66860 -79.61768 571 ft 26 kts 42°
2026-05-04 21:37 43.66955 -79.61653 566 ft 28 kts 40°
2026-05-04 21:37 43.67057 -79.61517 571 ft 16 kts 44°
2026-05-04 21:38 43.67141 -79.61412 571 ft 16 kts 42°
2026-05-04 21:38 43.67215 -79.61297 566 ft 16 kts 52°
2026-05-04 21:38 43.67299 -79.61297 571 ft 15 kts 322°
2026-05-04 21:38 43.67414 -79.61441 565 ft 27 kts 315°
2026-05-04 21:39 43.67548 -79.61618 563 ft 27 kts 316°
2026-05-04 21:39 43.67668 -79.61779 567 ft 21 kts 318°
2026-05-04 21:39 43.67776 -79.61920 566 ft 21 kts 317°
2026-05-04 21:39 43.67879 -79.62049 572 ft 18 kts 322°
2026-05-04 21:40 43.67977 -79.62005 566 ft 16 kts 59°
2026-05-04 21:40 43.68021 -79.61884 571 ft 13 kts 49°
2026-05-04 21:40 43.68082 -79.61797 564 ft 12 kts 45°
2026-05-04 21:40 43.68104 -79.61750 562 ft 5 kts 81°
2026-05-04 21:41 43.68091 -79.61715 562 ft 4 kts 132°
2026-05-04 21:41 43.68072 -79.61688 562 ft 3 kts 135°
2026-05-04 21:41 43.68065 -79.61678 562 ft 0 kts 135°
2026-05-04 21:41 43.68053 -79.61664 562 ft 0 kts 136°